N3HBJ Weather Reports


Display with metric or nautical units.
time (UTC)temp
F
wind
direction
speed
MPH
gust
MPH
rain 1hr
in
rain 24hr
in
rain mn
in
humidity
%
barometer
mb
20260902202130 86 117 0.0 2.0 0.00 0.63 0.60 69 1017.6
20260902201628 86 181 0.0 5.0 0.00 0.63 0.60 68 1017.6
20260902201128 85 181 1.0 5.0 0.00 0.63 0.60 68 1017.7
20260902200641 85 164 1.0 8.0 0.00 0.63 0.60 69 1017.6
20260902200351 85 272 0.0 8.0 0.00 0.63 0.60 69 1017.7
20260902195627 85 190 1.0 7.0 0.00 0.63 0.60 71 1017.7
20260902195124 85 87 1.0 7.0 0.00 0.63 0.60 71 1017.8
20260902194624 85 109 0.0 3.0 0.00 0.63 0.60 70 1017.8
20260902194125 85 126 0.0 1.0 0.00 0.63 0.60 70 1017.8
20260902193624 84 114 0.0 4.0 0.00 0.63 0.60 72 1017.9
20260902193124 84 114 1.0 5.0 0.00 0.63 0.60 70 1017.8
20260902192624 84 99 1.0 5.0 0.00 0.63 0.60 71 1017.9
20260902192125 84 103 0.0 5.0 0.00 0.63 0.60 69 1018.1
20260902191622 84 148 0.0 5.0 0.00 0.63 0.60 73 1018.1
20260902191121 84 148 0.0 5.0 0.00 0.63 0.60 71 1018.2
20260902190622 83 189 0.0 3.0 0.00 0.63 0.60 72 1018.2
20260902190121 83 194 0.0 3.0 0.00 0.63 0.60 72 1018.3
20260902185624 83 116 0.0 2.0 0.00 0.63 0.60 74 1018.3
20260902185120 82 117 0.0 4.0 0.00 0.63 0.60 74 1018.3
20260902184623 82 76 0.0 6.0 0.00 0.63 0.60 74 1018.2
20260902184120 82 107 0.0 6.0 0.00 0.63 0.60 73 1018.3
20260902183622 81 60 1.0 5.0 0.00 0.63 0.60 74 1018.5
20260902183117 81 49 1.0 8.0 0.00 0.63 0.60 74 1018.5
20260902182617 80 135 1.0 8.0 0.00 0.63 0.60 74 1018.6
20260902182116 80 55 1.0 4.0 0.00 0.63 0.60 75 1018.6
20260902181619 80 127 0.0 4.0 0.00 0.63 0.60 74 1018.7
20260902181117 79 118 0.0 3.0 0.00 0.63 0.60 77 1018.8
20260902180614 78 57 0.0 3.0 0.00 0.63 0.60 77 1019.0
20260902180116 78 103 0.0 1.0 0.00 0.63 0.60 78 1019.1
20260902175612 77 105 0.0 4.0 0.00 0.63 0.60 79 1019.1
20260902175110 77 104 0.0 4.0 0.00 0.63 0.60 80 1019.2
20260902174608 76 103 0.0 4.0 0.00 0.63 0.60 82 1019.3
20260902174108 76 110 0.0 4.0 0.00 0.63 0.60 81 1019.4
20260902173608 75 92 1.0 6.0 0.00 0.63 0.60 82 1019.4
20260902173105 75 90 1.0 6.0 0.00 0.63 0.60 82 1019.4
20260902172605 74 86 0.0 5.0 0.00 0.63 0.60 84 1019.3
20260902172103 74 58 0.0 4.0 0.00 0.63 0.60 86 1019.4
20260902171828 73 58 1.0 4.0 0.00 0.63 0.60 87 1019.6
20260902171331 72 24 1.0 6.0 0.00 0.63 0.60 87 1019.6
20260902170605 71 69 1.0 6.0 0.00 0.63 0.60 87 1019.7
20260902170117 71 53 1.0 5.0 0.00 0.63 0.60 87 1019.9
20260902165603 71 65 0.0 4.0 0.00 0.63 0.60 89 1020.3
20260902165104 71 65 1.0 7.0 0.00 0.63 0.60 89 1020.2
20260902164606 70 88 1.0 7.0 0.00 0.63 0.60 89 1020.2
20260902164103 70 355 0.0 2.0 0.00 0.63 0.60 90 1020.3
20260902163604 69 317 0.0 0.0 0.00 0.63 0.60 91 1020.5
20260902163104 69 317 0.0 2.0 0.00 0.63 0.60 90 1020.3
20260902162603 69 317 0.0 4.0 0.01 0.63 0.60 90 1020.5
20260902162103 68 20 0.0 4.0 0.01 0.63 0.60 90 1020.5
20260902161604 68 22 0.0 3.0 0.01 0.63 0.60 91 1020.2
20260902161319 68 58 0.0 1.0 0.01 0.63 0.60 91 1019.9
20260902161311 68 58 0.0 1.0 0.01 0.63 0.60 91 1020.2
20260902160110 68 61 0.0 1.0 0.02 0.63 0.60 91 1019.7
20260902155604 68 61 0.0 1.0 0.02 0.63 0.60 91 1019.7
20260902155103 68 61 0.0 0.0 0.02 0.63 0.60 91 1020.1
20260902154603 67 61 0.0 0.0 0.02 0.63 0.60 90 1020.0
20260902154104 67 61 1.0 5.0 0.03 0.63 0.60 90 1019.6
20260902153603 67 61 2.0 5.0 0.04 0.63 0.60 90 1019.5
20260902153103 67 53 2.0 5.0 0.05 0.63 0.60 90 1019.4
20260902152605 67 56 2.0 7.0 0.05 0.62 0.59 90 1019.7
20260902152104 67 40 1.0 7.0 0.06 0.62 0.59 91 1020.0
20260902151604 67 22 0.0 3.0 0.07 0.62 0.59 91 1020.2
20260902151103 67 22 0.0 1.0 0.12 0.62 0.59 91 1020.7
20260902150604 67 22 0.0 1.0 0.20 0.62 0.59 91 1021.0
20260902150109 67 22 0.0 0.0 0.32 0.61 0.58 91 1021.2
20260902145604 67 22 0.0 0.0 0.46 0.61 0.58 90 1021.1
20260902145546 67 22 0.0 0.0 0.58 0.61 0.58 90 1020.9
20260902144606 67 22 0.0 0.0 0.58 0.61 0.58 90 1020.7
20260902144104 67 22 1.0 4.0 0.57 0.60 0.57 90 1020.8
20260902143604 67 22 1.0 4.0 0.56 0.59 0.56 90 1020.5
20260902143059 67 33 0.0 3.0 0.55 0.58 0.55 90 1020.6
20260902142554 67 35 1.0 4.0 0.54 0.57 0.54 90 1021.2
20260902142047 68 68 1.0 4.0 0.53 0.56 0.53 89 1021.1
20260902141541 68 86 1.0 4.0 0.52 0.55 0.52 89 1021.5
20260902141036 68 97 1.0 7.0 0.47 0.50 0.48 89 1021.6
20260902140534 69 97 2.0 7.0 0.37 0.40 0.39 89 1021.2
20260902140034 70 54 2.0 12.0 0.26 0.29 0.27 89 1021.5
20260902135534 71 68 2.0 12.0 0.05 0.08 0.12 92 1022.2
20260902135034 71 111 0.0 0.0 0.00 0.03 0.00 92 1020.5
20260902134534 71 111 0.0 0.0 0.00 0.03 0.00 92 1019.8
20260902134033 71 111 0.0 0.0 0.00 0.03 0.00 92 1019.6
20260902133534 71 111 0.0 0.0 0.00 0.03 0.00 92 1019.4
20260902133034 71 111 0.0 0.0 0.00 0.03 0.00 92 1019.2
20260902132531 71 111 0.0 0.0 0.00 0.03 0.00 92 1019.0
20260902132030 71 111 0.0 0.0 0.00 0.03 0.00 92 1019.0
20260902131529 71 111 0.0 0.0 0.00 0.03 0.00 92 1019.0
20260902131042 71 111 0.0 0.0 0.00 0.03 0.00 92 1019.1
20260902130531 71 111 0.0 0.0 0.00 0.03 0.00 92 1019.2
20260902130252 71 111 0.0 0.0 0.00 0.03 0.00 92 1019.2
20260902125530 70 111 0.0 0.0 0.00 0.03 0.00 92 1019.2
20260902125029 70 111 0.0 0.0 0.00 0.03 0.00 92 1019.3
20260902124527 70 111 0.0 0.0 0.00 0.03 0.00 92 1019.3
20260902124030 70 111 0.0 0.0 0.00 0.03 0.00 93 1019.4
20260902123524 70 111 0.0 0.0 0.00 0.03 0.00 93 1019.6
20260902123023 70 111 0.0 0.0 0.00 0.03 0.00 93 1019.5
20260902122523 70 111 0.0 0.0 0.00 0.03 0.00 93 1019.4
20260902122245 70 111 0.0 0.0 0.00 0.03 0.00 93 1019.3
20260902121525 70 111 0.0 0.0 0.00 0.03 0.00 93 1019.2
20260902121242 69 111 0.0 0.0 0.00 0.03 0.00 93 1018.9
20260902121231 69 111 0.0 0.0 0.00 0.03 0.00 94 1019.1
20260902120023 68 111 0.0 0.0 0.00 0.03 0.00 93 1018.7
20260902120012 68 111 0.0 0.0 0.00 0.03 0.00 93 1018.7
20260902115021 68 111 0.0 0.0 0.00 0.03 0.00 92 1018.7
20260902114522 67 111 0.0 0.0 0.00 0.04 0.00 92 1018.8
20260902114022 67 111 0.0 0.0 0.00 0.04 0.00 92 1019.1
20260902113522 67 111 0.0 0.0 0.00 0.04 0.00 92 1019.0
20260902113023 66 111 0.0 0.0 0.00 0.04 0.00 92 1018.8
20260902112522 66 111 0.0 0.0 0.00 0.04 0.00 92 1018.7
20260902112021 66 111 0.0 0.0 0.00 0.04 0.00 91 1018.7
20260902111521 66 111 0.0 0.0 0.00 0.04 0.00 91 1018.6
20260902111021 66 111 0.0 0.0 0.00 0.04 0.00 91 1018.6
20260902110521 66 111 0.0 0.0 0.00 0.04 0.00 92 1018.4
20260902110022 66 111 0.0 0.0 0.00 0.04 0.00 91 1018.4
20260902105524 66 111 0.0 0.0 0.00 0.04 0.00 91 1018.5
20260902105022 66 111 0.0 0.0 0.00 0.04 0.00 91 1018.6
20260902104521 66 111 0.0 0.0 0.00 0.04 0.00 91 1018.5
20260902104024 66 111 0.0 0.0 0.00 0.04 0.00 91 1018.4
20260902103521 66 111 0.0 0.0 0.00 0.04 0.00 91 1018.3
20260902103020 66 111 0.0 0.0 0.00 0.04 0.00 91 1018.3
20260902102516 67 111 0.0 0.0 0.00 0.04 0.00 91 1018.3
20260902102015 67 111 0.0 0.0 0.00 0.04 0.00 91 1018.4
20260902101513 67 111 0.0 0.0 0.00 0.04 0.00 91 1018.5
20260902101011 67 111 0.0 0.0 0.00 0.04 0.00 91 1018.5
20260902100509 67 111 0.0 0.0 0.00 0.04 0.00 91 1018.6
20260902100008 67 111 0.0 0.0 0.00 0.04 0.00 91 1018.6
20260902095509 67 111 0.0 0.0 0.00 0.04 0.00 91 1018.5
20260902095007 67 111 0.0 0.0 0.00 0.04 0.00 91 1018.7
20260902094505 67 111 0.0 0.0 0.00 0.04 0.00 91 1018.6
20260902094006 67 111 0.0 0.0 0.00 0.04 0.00 91 1018.7
20260902093506 67 111 0.0 0.0 0.00 0.04 0.00 91 1018.8
20260902093008 67 111 0.0 0.0 0.00 0.04 0.00 90 1018.8
20260902092503 68 111 0.0 0.0 0.00 0.04 0.00 90 1018.9
20260902092004 68 111 0.0 0.0 0.00 0.04 0.00 91 1018.8
20260902091503 68 111 0.0 0.0 0.00 0.04 0.00 91 1018.9
20260902091003 68 111 0.0 0.0 0.00 0.04 0.00 91 1018.9
20260902090503 68 111 0.0 0.0 0.00 0.04 0.00 91 1018.9
20260902090232 68 111 0.0 0.0 0.00 0.04 0.00 91 1018.9
20260902085504 68 111 0.0 0.0 0.00 0.04 0.00 91 1019.0
20260902085223 68 111 0.0 0.0 0.00 0.04 0.00 91 1018.9
20260902084725 69 111 0.0 0.0 0.00 0.04 0.00 90 1018.9
20260902084236 69 111 0.0 0.0 0.00 0.04 0.00 90 1018.9
20260902083503 69 111 0.0 0.0 0.00 0.04 0.00 90 1018.8
20260902083232 69 111 0.0 0.0 0.00 0.04 0.00 90 1018.8
20260902082503 69 111 0.0 0.0 0.00 0.04 0.00 90 1018.7
20260902082003 69 111 0.0 0.0 0.00 0.04 0.00 90 1018.7
20260902081504 69 111 0.0 0.0 0.00 0.04 0.00 90 1018.8
20260902081223 70 111 0.0 0.0 0.00 0.04 0.00 90 1018.7
20260902080502 70 111 0.0 0.0 0.00 0.04 0.00 90 1018.7
20260902080217 70 111 0.0 0.0 0.00 0.04 0.00 90 1018.7
20260902075711 70 111 0.0 0.0 0.00 0.04 0.00 90 1018.7
20260902075209 70 111 0.0 0.0 0.00 0.04 0.00 90 1018.6
20260902074438 70 111 0.0 0.0 0.00 0.04 0.00 90 1018.6
20260902074153 70 111 0.0 0.0 0.00 0.04 0.00 90 1018.6
20260902073432 71 111 0.0 0.0 0.00 0.04 0.00 90 1018.6
20260902073151 71 111 0.0 0.0 0.00 0.04 0.00 90 1018.6
20260902072427 71 111 0.0 0.0 0.00 0.04 0.00 90 1018.6
20260902071927 71 111 0.0 0.0 0.00 0.04 0.00 90 1018.7
20260902071425 71 111 0.0 0.0 0.00 0.04 0.00 90 1018.7
20260902070923 71 111 0.0 0.0 0.00 0.04 0.00 90 1018.8
20260902070421 71 111 0.0 0.0 0.00 0.04 0.00 90 1018.8
20260902065918 71 111 0.0 0.0 0.00 0.04 0.00 90 1018.8
20260902065415 71 111 0.0 0.0 0.00 0.04 0.00 90 1018.7
20260902064916 72 111 0.0 0.0 0.00 0.04 0.00 90 1018.7
20260902064415 72 111 0.0 0.0 0.00 0.04 0.00 91 1018.9
20260902063915 72 111 0.0 0.0 0.00 0.04 0.00 91 1019.0
20260902063416 72 111 0.0 0.0 0.00 0.04 0.00 91 1019.0
20260902062916 72 111 0.0 0.0 0.00 0.04 0.00 91 1019.1
20260902062415 72 111 0.0 0.0 0.00 0.04 0.00 91 1019.1
20260902061915 72 111 0.0 0.0 0.00 0.04 0.00 91 1019.1
20260902061415 72 111 0.0 0.0 0.00 0.04 0.00 91 1019.1
20260902060916 72 111 0.0 0.0 0.00 0.04 0.00 91 1019.1
20260902060415 72 111 0.0 0.0 0.00 0.04 0.00 91 1019.0
20260902055917 72 111 0.0 0.0 0.00 0.04 0.00 90 1019.1
20260902055415 72 111 0.0 0.0 0.00 0.04 0.00 90 1019.1
20260902054915 72 111 0.0 0.0 0.00 0.04 0.00 90 1019.1
20260902054415 72 111 0.0 0.0 0.00 0.04 0.00 90 1019.0
20260902053915 72 111 0.0 0.0 0.00 0.04 0.00 90 1019.1
20260902053415 72 111 0.0 0.0 0.00 0.04 0.00 90 1019.1
20260902053137 72 111 0.0 0.0 0.00 0.04 0.00 90 1019.1
20260902052416 72 111 0.0 0.0 0.00 0.04 0.00 90 1019.1
20260902051916 73 111 0.0 0.0 0.00 0.04 0.00 90 1019.1
20260902051415 73 111 0.0 0.0 0.00 0.04 0.00 90 1019.0
20260902050916 73 111 0.0 0.0 0.00 0.04 0.00 90 1019.0
20260902050415 73 111 0.0 0.0 0.00 0.04 0.00 90 1019.0
20260902045914 73 111 0.0 1.0 0.00 0.04 0.00 90 1019.0
20260902045633 73 111 0.0 2.0 0.00 0.04 0.00 90 1019.0
20260902044914 73 111 0.0 2.0 0.00 0.04 0.00 90 1019.0
20260902044415 73 111 0.0 0.0 0.00 0.04 0.00 90 1018.9
20260902043915 73 111 0.0 0.0 0.00 0.04 0.00 90 1019.0
20260902043413 73 111 0.0 0.0 0.00 0.04 0.00 90 1018.9
20260902042912 73 111 0.0 0.0 0.00 0.04 0.00 90 1018.8
20260902042412 73 111 0.0 0.0 0.00 0.04 0.00 90 1018.8
20260902041910 73 111 0.0 0.0 0.00 0.04 0.00 90 1018.7
20260902041411 73 111 0.0 0.0 0.00 0.04 0.00 90 1018.6
20260902041347 73 111 0.0 0.0 0.00 0.04 0.00 90 1018.6
20260902040635 73 111 0.0 0.0 0.00 0.04 0.00 90 1018.5
20260902035910 73 111 0.0 0.0 0.00 0.04 0.04 89 1018.5
20260902035410 73 111 0.0 0.0 0.00 0.04 0.04 89 1018.4
20260902035132 73 111 0.0 0.0 0.00 0.04 0.04 89 1018.3
20260902034417 73 111 0.0 0.0 0.00 0.04 0.04 90 1018.3
20260902033903 73 111 0.0 0.0 0.00 0.04 0.04 90 1018.2
20260902033403 73 111 0.0 0.0 0.00 0.04 0.04 89 1018.3
20260902032904 73 111 0.0 0.0 0.00 0.04 0.04 89 1018.2
20260902032403 73 111 0.0 0.0 0.00 0.04 0.04 89 1018.1
20260902031903 73 111 0.0 0.0 0.00 0.04 0.04 89 1018.1
20260902031404 73 111 0.0 0.0 0.00 0.04 0.04 89 1017.9
20260902030903 74 111 0.0 0.0 0.00 0.04 0.04 88 1017.9
20260902030404 74 111 0.0 0.0 0.00 0.04 0.04 89 1017.8
20260902025904 74 111 0.0 0.0 0.00 0.04 0.04 88 1017.7
20260902025404 74 111 0.0 0.0 0.00 0.04 0.04 88 1017.5
20260902025126 74 111 0.0 0.0 0.00 0.04 0.04 88 1017.5
20260902024403 74 111 0.0 0.0 0.00 0.04 0.04 88 1017.4
20260902023904 74 111 0.0 0.0 0.00 0.04 0.04 88 1017.4
20260902023408 75 111 0.0 0.0 0.00 0.04 0.04 88 1017.5
20260902023403 74 111 0.0 0.0 0.00 0.04 0.04 88 1017.5
20260902022407 75 111 0.0 0.0 0.00 0.04 0.04 88 1017.4
20260902021904 75 111 0.0 0.0 0.01 0.04 0.04 87 1017.4
20260902021403 75 111 0.0 0.0 0.02 0.04 0.04 87 1017.4
20260902020903 75 111 0.0 0.0 0.03 0.04 0.04 87 1017.3
20260902020415 75 111 0.0 0.0 0.03 0.04 0.04 87 1017.3
20260902020127 76 111 0.0 0.0 0.03 0.04 0.04 86 1017.2
20260902015400 76 111 0.0 0.0 0.03 0.04 0.04 86 1017.3
20260902014858 76 111 0.0 0.0 0.03 0.04 0.04 86 1017.4
20260902014358 76 111 0.0 0.0 0.03 0.04 0.04 86 1017.5
20260902013858 76 111 0.0 0.0 0.03 0.04 0.04 85 1017.4
20260902013357 77 111 0.0 0.0 0.03 0.04 0.04 85 1017.5
20260902013113 77 111 0.0 2.0 0.03 0.04 0.04 84 1017.6
20260902012352 77 111 0.0 2.0 0.03 0.04 0.04 83 1017.6
20260902012110 78 111 0.0 0.0 0.02 0.03 0.03 82 1017.7
20260902011351 78 111 0.0 0.0 0.01 0.02 0.03 81 1017.7
20260902010902 78 111 0.0 0.0 0.00 0.01 0.01 81 1017.8
20260902010347 78 111 0.0 0.0 0.00 0.01 0.01 80 1017.6
20260902005846 79 111 0.0 1.0 0.00 0.01 0.01 79 1017.3
20260902005345 79 111 0.0 1.0 0.00 0.01 0.01 79 1017.2
20260902005323 79 111 0.0 0.0 0.00 0.01 0.01 78 1017.1
20260902004559 79 111 0.0 0.0 0.00 0.01 0.01 78 1017.2
20260902003838 79 111 0.0 0.0 0.00 0.01 0.01 78 1017.2
20260902003339 79 111 0.0 0.0 0.00 0.01 0.01 78 1017.1
20260902002839 79 111 0.0 1.0 0.00 0.01 0.01 78 1017.0
20260902002605 79 111 0.0 1.0 0.00 0.01 0.01 78 1017.0
20260902001837 79 111 0.0 0.0 0.00 0.01 0.01 78 1016.8
20260902001331 79 111 0.0 1.0 0.00 0.01 0.01 78 1016.3
20260902000826 80 111 0.0 1.0 0.00 0.01 0.01 78 1016.2
20260902000322 80 98 0.0 1.0 0.00 0.01 0.01 78 1016.1
20260901235816 80 98 0.0 1.0 0.00 0.01 0.01 78 1016.2
20260901235315 80 98 0.0 0.0 0.00 0.01 0.01 78 1016.2
20260901234816 81 98 0.0 0.0 0.00 0.01 0.01 77 1016.2
20260901234313 81 98 0.0 0.0 0.00 0.01 0.01 76 1016.4
20260901233811 81 98 0.0 0.0 0.00 0.01 0.01 75 1016.2
20260901233312 82 98 0.0 0.0 0.00 0.01 0.01 74 1016.3
20260901232820 82 98 0.0 0.0 0.00 0.01 0.01 74 1016.4
20260901232306 82 98 0.0 0.0 0.00 0.01 0.01 73 1016.7
20260901231805 82 98 0.0 0.0 0.00 0.01 0.01 73 1016.4
20260901231306 83 98 0.0 0.0 0.00 0.01 0.01 72 1016.2
20260901231254 83 98 0.0 0.0 0.00 0.01 0.01 71 1016.1
20260901230305 84 98 0.0 0.0 0.00 0.01 0.01 70 1016.2
20260901225803 84 98 0.0 2.0 0.00 0.01 0.01 70 1016.2
20260901225306 84 98 0.0 2.0 0.00 0.01 0.01 69 1016.2
20260901224803 85 159 0.0 2.0 0.00 0.01 0.01 67 1016.2
20260901224303 85 144 0.0 5.0 0.00 0.01 0.01 67 1016.2
20260901223805 86 144 0.0 5.0 0.00 0.01 0.01 66 1016.2
20260901223303 86 156 0.0 4.0 0.00 0.01 0.01 66 1016.2
20260901223035 86 341 0.0 1.0 0.00 0.01 0.01 66 1016.2
20260901222306 86 116 0.0 2.0 0.00 0.01 0.01 66 1016.2
20260901221805 86 117 1.0 8.0 0.00 0.01 0.01 66 1016.2
20260901221527 86 101 1.0 8.0 0.00 0.01 0.01 65 1016.2
20260901220805 87 194 0.0 1.0 0.00 0.01 0.01 65 1016.3
20260901220304 87 139 1.0 6.0 0.00 0.01 0.01 65 1016.3
20260901215804 87 156 1.0 7.0 0.00 0.01 0.01 63 1016.2
20260901215306 87 117 0.0 7.0 0.00 0.01 0.01 64 1016.2
20260901214805 87 86 1.0 5.0 0.00 0.01 0.01 64 1016.3
20260901214303 87 152 1.0 5.0 0.00 0.01 0.01 64 1016.3
20260901213805 87 124 1.0 9.0 0.00 0.01 0.01 65 1016.3
20260901213527 86 171 1.0 9.0 0.00 0.01 0.01 63 1016.2
20260901212804 87 118 1.0 6.0 0.00 0.01 0.01 63 1016.2
20260901212530 87 142 1.0 7.0 0.00 0.01 0.01 63 1016.2
20260901211803 87 117 2.0 11.0 0.00 0.01 0.01 62 1016.3
20260901211258 87 169 3.0 12.0 0.00 0.01 0.01 63 1016.2
20260901211239 87 89 2.0 12.0 0.00 0.01 0.01 62 1016.2
20260901210251 87 163 2.0 8.0 0.00 0.01 0.01 62 1016.3
20260901205750 87 73 2.0 8.0 0.00 0.01 0.01 62 1016.3
20260901205247 87 140 0.0 5.0 0.00 0.01 0.01 62 1016.3
20260901204748 87 157 1.0 8.0 0.00 0.01 0.01 63 1016.4
20260901204246 87 161 1.0 8.0 0.00 0.01 0.01 62 1016.4
20260901204002 87 121 1.0 8.0 0.00 0.01 0.01 63 1016.4
20260901203243 87 156 1.0 8.0 0.00 0.01 0.01 63 1016.4
20260901202741 87 265 1.0 8.0 0.00 0.01 0.01 64 1016.4